map of GJL home
GJL - Airport
Location
City:  Jijel, Jijel, Algeria
Name:Ferhat Abbas
Old (Alt.):Taher
ICAO:DAAV
IATA:GJL

Details
Type:Airport (Aerodrome, Airfield)
Latitude:3647'40"N (36.794444)
Longitude:552'25"E (5.873611)
Elevation:36 ft (11 m)
Variation:1.71E (WMM2015 magnetic declination)
0.10 annual change
Runways:1
Longest:7874 × 148 ft (2400 × 45 m)

Time
Time Zone:UTC+1
Local Time:

Weather
METAR:DAAV 190900Z 18003KT CAVOK 17/09 Q1024
TAF:DAAV 190500Z 1906/2006 20009KT CAVOK
BECMG 1909/1912 27012KT PROB40
TEMPO 1913/1921 28015G25KT PROB30
TEMPO 1914/1918 FEW030TCU
BECMG 1922/1924 21008KT PROB40
TEMPO 2000/2006 3000 BR BKN010

Related Locations
Nearby:
Farthest:GIS: 11991 mi / 19297 km
Gisborne, GIS, NZ

Find:

   beyond  
but within

Other Information
Maps:
NOTAMs:
Links:
Sources:

  
  • flag of Algeria
  

Sectional Chart

Flight Planning
at skyvector.com

Satellite Image

Google Maps Satellite view

 

Copyright © 2004-2018 Karl L. Swartz. All rights reserved.
The Great Circle Mapper name and logo are trademarks of the Great Circle Mapper.
All other trademarks mentioned herein belong to their respective owners.
Please see credits for attibutions and further copyright information.

  Follow gcmap on Facebook Follow gcmap on Twitter Follow gcmap on Google+ GCmap on LinkedIn

hCard Microformat

Geo Microformat